[[{"header":{"parameterUnit":"m.s-1","parameterCategory":1,"la1":30.2991,"la2":30.254,"lo1":-89.0895,"lo2":-89.0444,"dy":0.0017,"dx":0.0017,"nx":28,"ny":28,"refTime":"2024-04-02T21:00:00:Z","depth":0,"parameterNumber":2,"parameterNumberName":"U-component_of_WINDS"},"data":[0,0,0,0,0,0,0,0,0,0,0,0,0,0,0,0,0,0,0,0,0,0,0,0,0,0,0,0,0,0,0,0,0,0,0,0,0,0,0,0,0,0,0,0,0,0,0,0,0,0,0,0,0,0,0,0,0,0,6.7491,6.7493,0,6.7651,6.7652,6.7654,6.7598,6.7595,6.7591,6.7588,6.7752,6.7759,6.7767,0,0,0,0,0,0,0,0,0,0,0,0,0,6.7141,6.7147,6.7491,6.7493,6.7495,6.765,6.7652,6.7655,6.7599,6.7595,6.759,6.7586,6.775,6.7759,6.7768,0,0,0,0,0,0,0,0,0,0,0,0,0,6.7296,6.715,6.7491,6.7486,6.7487,6.765,6.7653,6.7655,6.76,6.7595,6.7589,6.7584,6.7747,6.7758,6.7769,6.7946,0,0,6.7804,6.7809,0,0,0,0,0,0,0,0,6.7287,6.7309,6.7485,6.7487,6.7488,6.7599,6.7589,6.7753,6.7601,6.7557,6.7588,6.7582,6.7706,6.772,6.7762,6.7954,6.7961,6.7805,6.7812,6.7817,6.782,0,0,0,0,0,0,0,6.7276,6.7302,6.7554,6.7487,6.749,6.7477,6.7493,6.762,6.7659,6.7561,6.7557,6.7576,6.7705,6.7751,6.7765,6.7963,6.7805,6.7815,6.7822,6.7827,6.831,6.8316,0,0,0,0,0,0,6.7265,6.7293,6.7549,6.7559,6.7373,6.7487,6.7505,6.7569,6.7658,6.7666,6.7581,6.7573,6.7734,6.7752,6.7771,6.7984,6.7817,6.7828,6.7834,6.8304,6.8312,6.8318,0,0,0,0,0,0,6.7257,6.7288,6.7543,6.7425,6.7457,6.7499,6.7571,6.7575,6.762,6.7673,6.768,6.762,6.773,6.7754,6.7903,6.7989,6.7833,6.7843,6.8297,6.8307,6.8315,6.8413,0,0,0,0,0,0,6.7247,6.7286,6.7353,6.7427,6.7463,6.7672,6.7576,6.7582,6.764,6.7631,6.7711,6.7719,6.7728,6.7886,6.7915,6.8002,6.7852,6.829,6.8301,6.8312,6.8402,6.8424,6.8443,0,0,0,0,0,6.7235,6.7374,6.7356,6.7388,6.7548,6.7677,6.7698,6.7705,6.7647,6.7715,6.775,6.7717,6.7976,6.7902,6.7933,6.8026,6.8284,6.8298,6.8311,6.8393,6.842,6.8442,0,0,0,0,0,0,6.7309,6.7383,6.7365,6.7532,6.7599,6.7668,6.7754,6.7733,6.7817,6.7806,6.7811,6.783,6.7983,6.8019,6.7936,6.8203,6.8121,6.8142,6.8173,6.8199,6.8219,6.8207,6.7862,0,0,0,0,0,6.7344,6.7443,6.7503,6.7645,6.7679,6.7711,6.7768,6.7767,6.7837,6.7865,6.791,6.7979,6.8076,6.8139,6.8231,6.8408,6.8425,6.8487,6.8507,6.8524,6.8541,6.8638,6.8666,6.8362,6.8362,6.8362,0,0,6.7419,6.7472,6.7534,6.7661,6.7712,6.7815,6.7735,6.7846,6.7923,6.7882,6.8025,6.8061,6.8138,6.8302,6.8376,6.8337,6.8629,6.8541,6.8553,6.8562,6.8655,6.8683,6.8709,6.8371,6.8369,6.8368,0,0,6.7607,6.7657,6.7781,6.7834,6.7914,6.7934,6.7964,6.8037,6.8059,6.8203,6.8175,6.8266,6.8433,6.849,6.854,6.8752,6.8726,6.8782,6.8888,6.8983,6.9007,6.9028,6.9104,6.9131,6.8799,6.88,6.88,0,6.7689,6.7842,6.7847,6.7962,6.8019,6.7987,6.8112,6.8165,6.827,6.8311,6.8265,6.8475,6.8525,6.8701,6.8753,6.8796,6.883,6.8773,6.9003,6.9024,6.9044,6.9117,6.9145,6.8806,6.8805,6.8805,6.8804,0,6.794,6.8047,6.8137,6.824,6.8308,6.8428,6.8451,6.8519,6.8514,6.8539,6.8687,6.8746,6.885,6.8892,6.8888,6.9069,6.9042,6.9,6.8919,6.9079,6.9148,6.9175,6.8815,6.8813,6.8811,6.8809,0,0,6.8178,6.8283,6.8316,6.8363,6.8449,6.8532,6.8651,6.8752,6.8811,6.8886,6.8986,6.9128,6.909,6.9148,6.915,6.9233,6.9398,6.9181,6.9182,6.9219,6.9602,6.9633,6.9665,6.9381,6.9386,6.9391,6.9596,0,6.8373,6.8581,6.859,6.878,6.8879,6.8851,6.8954,6.9019,6.9047,6.9135,6.9166,6.9267,6.9209,6.9244,6.9325,6.9361,6.9475,6.9346,6.9475,6.9479,6.9456,6.9701,6.9734,6.9924,6.9622,6.9627,6.963,0,6.8628,6.8711,6.8911,6.8984,6.9026,6.9119,6.9213,6.9298,6.9371,6.9386,6.9451,6.9442,6.9564,6.948,6.9649,6.9561,6.9615,6.9641,6.9648,6.966,6.9564,6.9719,6.9985,7.0014,6.9672,6.9669,6.9666,0,6.8781,6.8943,6.9084,6.9125,6.9213,6.9279,6.932,6.9388,6.9449,6.9532,6.9572,6.9668,6.9721,6.9796,6.9813,6.975,6.9983,6.99,6.9999,6.9999,7.0049,7.0045,7.0327,7.0084,7.0084,7.0083,7.0083,0,6.8998,6.9122,6.9154,6.924,6.9378,6.9388,6.9524,6.956,6.9621,6.9715,6.9697,6.9785,6.9802,6.9895,6.9909,7.0048,7.0072,7.0087,7.009,7.0089,7.0087,7.0123,7.011,7.0091,7.0089,7.0088,7.0086,0,6.9192,6.9219,6.937,6.9442,6.9464,6.9562,6.9624,6.9708,6.9734,6.9852,6.9881,6.9922,7.003,7.0055,7.0183,7.0193,7.0358,7.0347,7.0333,7.0332,7.043,7.042,7.0744,7.0788,7.0517,7.052,7.0522,0,6.9329,6.9423,6.9506,6.9567,6.961,6.9709,6.9771,6.9785,6.9851,6.9942,7.0015,7.0121,7.0206,7.0381,7.0422,7.0521,7.0513,7.062,7.0527,7.0524,7.0514,7.0508,7.0518,7.0637,7.064,7.0642,7.0644,0,6.9568,6.9577,6.9667,6.9763,6.9838,6.9914,6.9986,7.0038,7.0062,7.0137,7.0247,7.0313,7.0445,7.055,7.065,7.0692,7.0673,7.0673,7.0701,7.0701,7.0689,7.0697,7.038,7.0665,7.0663,7.0662,7.066,7.066,6.9738,6.9821,6.9892,6.9993,7.005,7.0118,7.02,7.0237,7.0329,7.0437,7.044,7.056,7.0632,7.0763,7.0812,7.0907,7.0874,7.0914,7.0925,7.0935,7.0943,7.0674,7.0925,7.0924,7.0924,7.0923,7.0923,0,6.9976,7.0021,7.0114,7.0216,7.0297,7.0272,7.0351,7.042,7.0526,7.0595,7.068,7.0807,7.091,7.0961,7.1063,7.1129,7.1123,7.1155,7.115,7.116,7.0967,7.0932,7.1158,7.1158,7.1158,7.1158,7.1158,7.1158,7.011,7.0249,7.0266,7.0434,7.0478,7.0595,7.0643,7.0706,7.0761,7.0904,7.0989,7.1021,7.1084,7.119,7.1284,7.1296,7.1335,7.1372,7.138,7.1198,7.1174,7.1151,7.1118,7.138,7.138,7.1565,7.1567,7.1568]},{"header":{"parameterUnit":"m.s-1","parameterCategory":1,"la1":30.2991,"la2":30.254,"lo1":-89.0895,"lo2":-89.0444,"dy":0.0017,"dx":0.0017,"nx":28,"ny":28,"refTime":"2024-04-02T21:00:00:Z","depth":0,"parameterNumber":3,"parameterNumberName":"V-component_of_WINDS"},"data":[0,0,0,0,0,0,0,0,0,0,0,0,0,0,0,0,0,0,0,0,0,0,0,0,0,0,0,0,0,0,0,0,0,0,0,0,0,0,0,0,0,0,0,0,0,0,0,0,0,0,0,0,0,0,0,0,0,0,-0.3431,-0.3431,0,-0.3455,-0.3455,-0.3455,-0.3515,-0.3516,-0.3518,-0.3519,-0.354,-0.3539,-0.3538,0,0,0,0,0,0,0,0,0,0,0,0,0,-0.3434,-0.3433,-0.3431,-0.3431,-0.3431,-0.3455,-0.3455,-0.3455,-0.3515,-0.3516,-0.3518,-0.3519,-0.354,-0.3539,-0.3538,0,0,0,0,0,0,0,0,0,0,0,0,0,-0.3442,-0.3433,-0.3431,-0.3464,-0.3467,-0.3454,-0.3455,-0.3455,-0.3515,-0.3516,-0.3518,-0.352,-0.354,-0.3539,-0.3538,-0.3494,0,0,-0.3535,-0.3535,0,0,0,0,0,0,0,0,-0.3442,-0.3442,-0.3459,-0.3462,-0.3465,-0.3484,-0.3464,-0.3468,-0.3514,-0.3496,-0.3519,-0.3521,-0.3519,-0.352,-0.352,-0.3495,-0.3496,-0.3535,-0.3535,-0.3534,-0.3534,0,0,0,0,0,0,0,-0.3441,-0.3441,-0.344,-0.3459,-0.3463,-0.3477,-0.348,-0.3465,-0.3497,-0.3498,-0.3503,-0.3505,-0.3521,-0.3521,-0.3521,-0.3496,-0.3535,-0.3535,-0.3534,-0.3534,-0.3435,-0.3433,0,0,0,0,0,0,-0.3436,-0.3441,-0.3439,-0.3441,-0.3458,-0.3475,-0.3479,-0.3476,-0.3497,-0.3502,-0.3503,-0.3507,-0.3522,-0.3522,-0.3522,-0.3471,-0.3534,-0.3533,-0.3533,-0.3437,-0.3435,-0.3433,0,0,0,0,0,0,-0.3436,-0.3436,-0.3438,-0.3442,-0.3443,-0.3473,-0.3469,-0.3475,-0.3475,-0.3501,-0.3507,-0.3497,-0.3523,-0.3524,-0.3501,-0.3473,-0.3533,-0.3532,-0.344,-0.3437,-0.3434,-0.3369,0,0,0,0,0,0,-0.3436,-0.3435,-0.3419,-0.3441,-0.3443,-0.3417,-0.3468,-0.3474,-0.3474,-0.348,-0.3497,-0.3501,-0.3525,-0.3502,-0.35,-0.3473,-0.3531,-0.3442,-0.3438,-0.3435,-0.3374,-0.3365,-0.3356,0,0,0,0,0,-0.3436,-0.34,-0.3418,-0.3418,-0.3424,-0.3415,-0.3416,-0.3445,-0.3471,-0.3455,-0.3472,-0.3501,-0.3477,-0.3499,-0.3497,-0.3469,-0.3444,-0.3439,-0.3435,-0.3378,-0.3366,-0.3357,0,0,0,0,0,0,-0.3372,-0.3403,-0.3424,-0.3394,-0.3402,-0.3426,-0.3406,-0.3432,-0.3432,-0.3437,-0.3472,-0.3475,-0.3447,-0.3456,-0.3481,-0.3428,-0.3465,-0.346,-0.3422,-0.3412,-0.3403,-0.3401,-0.3531,0,0,0,0,0,-0.3355,-0.3347,-0.3374,-0.3344,-0.3348,-0.3376,-0.3373,-0.3395,-0.3404,-0.3407,-0.3422,-0.3429,-0.3423,-0.3418,-0.3414,-0.3376,-0.338,-0.3356,-0.3347,-0.334,-0.3334,-0.3315,-0.3304,-0.3418,-0.3418,-0.3418,0,0,-0.3319,-0.3335,-0.3327,-0.3332,-0.3341,-0.333,-0.3378,-0.3365,-0.3357,-0.3405,-0.3384,-0.3395,-0.3405,-0.3375,-0.3362,-0.3381,-0.3304,-0.3334,-0.3328,-0.3327,-0.3309,-0.3298,-0.3288,-0.3414,-0.3415,-0.3416,0,0,-0.3248,-0.3259,-0.3236,-0.3244,-0.3257,-0.3276,-0.327,-0.329,-0.33,-0.328,-0.3316,-0.3306,-0.3295,-0.3301,-0.3302,-0.3233,-0.3259,-0.323,-0.3183,-0.3163,-0.3154,-0.3147,-0.3121,-0.3112,-0.3225,-0.3225,-0.3225,0,-0.3201,-0.3187,-0.322,-0.3205,-0.3206,-0.325,-0.3226,-0.3232,-0.3242,-0.3241,-0.3263,-0.325,-0.326,-0.3231,-0.3214,-0.3214,-0.3207,-0.3228,-0.3153,-0.3146,-0.3139,-0.3115,-0.3105,-0.3221,-0.3222,-0.3222,-0.3222,0,-0.3128,-0.3118,-0.3098,-0.3108,-0.3107,-0.3087,-0.3116,-0.3111,-0.3132,-0.3149,-0.3128,-0.3141,-0.314,-0.3135,-0.3156,-0.3109,-0.3121,-0.3147,-0.3186,-0.3124,-0.3102,-0.3093,-0.3216,-0.3217,-0.3219,-0.3219,0,0,-0.3017,-0.3046,-0.3038,-0.3043,-0.306,-0.3053,-0.3035,-0.3035,-0.3029,-0.3035,-0.302,-0.301,-0.3035,-0.3036,-0.3058,-0.3041,-0.2984,-0.307,-0.3071,-0.3052,-0.2932,-0.2911,-0.29,-0.3002,-0.3001,-0.2999,-0.2931,0,-0.2949,-0.2921,-0.2951,-0.2916,-0.2907,-0.2949,-0.2933,-0.2941,-0.2956,-0.295,-0.2966,-0.2958,-0.2992,-0.2993,-0.2978,-0.2994,-0.296,-0.3,-0.2987,-0.2986,-0.2983,-0.2889,-0.2866,-0.2801,-0.2923,-0.2921,-0.292,0,-0.2866,-0.2869,-0.2834,-0.2853,-0.2851,-0.2836,-0.2839,-0.2832,-0.2842,-0.2854,-0.2856,-0.2883,-0.2866,-0.2904,-0.288,-0.2906,-0.2903,-0.291,-0.2908,-0.2907,-0.2949,-0.2884,-0.2781,-0.2771,-0.2907,-0.2908,-0.2909,0,-0.2788,-0.2782,-0.2761,-0.2764,-0.2786,-0.2775,-0.2783,-0.2796,-0.2794,-0.2796,-0.2795,-0.2794,-0.2793,-0.2792,-0.2817,-0.2843,-0.279,-0.283,-0.2798,-0.2797,-0.2784,-0.2784,-0.2678,-0.2783,-0.2784,-0.2784,-0.2784,0,-0.2708,-0.2685,-0.2726,-0.2712,-0.2687,-0.272,-0.2694,-0.2707,-0.2717,-0.2706,-0.2742,-0.2731,-0.2766,-0.2757,-0.2777,-0.2754,-0.2753,-0.2762,-0.2767,-0.2758,-0.2757,-0.2756,-0.276,-0.2781,-0.2782,-0.2782,-0.2783,0,-0.2616,-0.2642,-0.2621,-0.2645,-0.265,-0.263,-0.265,-0.2637,-0.2655,-0.264,-0.2639,-0.2666,-0.2658,-0.2684,-0.268,-0.2694,-0.2659,-0.2672,-0.2656,-0.2659,-0.2626,-0.2628,-0.2514,-0.25,-0.2615,-0.2614,-0.2613,0,-0.2563,-0.2546,-0.2568,-0.2564,-0.2571,-0.2563,-0.2562,-0.2594,-0.2591,-0.2601,-0.2587,-0.2583,-0.2581,-0.2566,-0.2585,-0.2582,-0.2595,-0.2555,-0.2595,-0.2586,-0.2593,-0.2594,-0.2592,-0.2547,-0.2545,-0.2544,-0.2543,0,-0.2466,-0.248,-0.2478,-0.2479,-0.2477,-0.2479,-0.2484,-0.2478,-0.2513,-0.2507,-0.25,-0.2499,-0.2496,-0.249,-0.2491,-0.2499,-0.2526,-0.2531,-0.2523,-0.2513,-0.2504,-0.2508,-0.2632,-0.2533,-0.2534,-0.2535,-0.2535,-0.2536,-0.2392,-0.2379,-0.2392,-0.2387,-0.2395,-0.2398,-0.2388,-0.2405,-0.24,-0.24,-0.2419,-0.2408,-0.2418,-0.2423,-0.2428,-0.2419,-0.2438,-0.2427,-0.2424,-0.242,-0.2414,-0.2506,-0.242,-0.242,-0.242,-0.2421,-0.2421,0,-0.2296,-0.2307,-0.2303,-0.2309,-0.2305,-0.2332,-0.2339,-0.2334,-0.2324,-0.2332,-0.2329,-0.2321,-0.2316,-0.2334,-0.2332,-0.2321,-0.2333,-0.2319,-0.232,-0.2321,-0.2398,-0.2405,-0.2309,-0.2309,-0.2309,-0.2309,-0.2309,-0.2309,-0.2246,-0.2225,-0.2241,-0.2223,-0.2234,-0.2224,-0.2226,-0.2229,-0.2235,-0.2224,-0.2221,-0.2233,-0.2245,-0.2244,-0.224,-0.2245,-0.2242,-0.2224,-0.2233,-0.2305,-0.2316,-0.2326,-0.2332,-0.2223,-0.2223,-0.2156,-0.2156,-0.2155]}]]